User: anonymous   Login
Location: Unspecified
(0.0000°N, 0.0000°E)
Time: 23:50:20
(UTC+00:00)
Language:

TBA - TO BE ASSIGNED - Orbit

View from above orbital plane
View from above orbital plane
View from above satellite
View from above satellite

Ground track
Ground track

The orbit is defined by the following mean orbital elements,

1 67375U          26145.22689810 +.00000000 +00000-0 +76870-4 0 00007
2 67375  97.8036 144.2742 0004700 179.9085 180.2134 14.88161586    04
Epoch (UTC): 25 May 2026 05:26:43
Eccentricity: 0.0004700
inclination: 97.8036°
perigee height: 600 km
apogee height: 607 km
right ascension of ascending node: 144.2742°
argument of perigee: 179.9085°
revolutions per day: 14.88161586
mean anomaly at epoch: 180.2134°

The dashed part of the orbit path shows where the satellite is in the earth's shadow,  

DLR